STARLINK AJ (44267 NORAD) Tracking and Keplerian Element Data

This shows tracking and keplerian element data for the satellite.

Feedback or suggestion? Click here.




ElementValue
Catalog44267
NameSTARLINK AJ
Epoch Orbit344
Epoch Day165.97785001
Epoch Year2019
RAAN73.3884
Inclination52.9755
Eccentricity0.0021025
Argument of Perigee341.704
Mean Anonmoly18.3189
Mean Motion15.06861858
Decay Rate-0.01866452
L11 44267U 19029AJ 19165.97785001 -.01866452 00000-0 -13542+0 0 9991
L22 44267 52.9755 73.3884 0021025 341.7040 18.3189 15.06861858 3449

Live tracking and technical data element details for STARLINK AJ (NORAD 44267). STARLINK AJ can be tracked NOW for your location showing map with azimuth and elevation plus other details from your city location.

Track the satellite on the map from your city or location and see movement details for azimuth, elevation, latitude, longitude, range, height, and movement on the map or in text.







IsCatalogInMostPopularTable: catalog: 44267, numindb: 35
Update: records affected: 1



GetName: 44267 STARLINK AJ

Hit Count: updated at: Sun, 21 Jul 2019 20:57:50 GMT